[[{"header":{"parameterUnit":"m.s-1","parameterCategory":2,"la1":30.2992,"la2":30.254,"lo1":-89.0895,"lo2":-89.0443,"dy":0.0025,"dx":0.0025,"nx":19,"ny":19,"refTime":"2026-03-13T03:00:00:Z","depth":"0","parameterNumber":2,"parameterNumberName":"U-component_of_CURRENTS"},"data":[0,0,0,0.3062,0.3063,0.3082,0.3081,0.3111,0.3111,0,0,0,0,0,0,0,0,0,0,0,0.3053,0.3053,0.3062,0.3063,0.3082,0.3081,0.3111,0.3111,0,0,0,0,0,0,0,0,0,0,0,0.3053,0.3053,0.3054,0.3063,0.3082,0.3081,0.3111,0.3092,0,0,0,0,0,0,0,0,0,0,0.3072,0.3069,0.3053,0.3054,0.3064,0.3082,0.3081,0.3091,0.3093,0.3108,0,0.3119,0,0.3124,0.3114,0.3115,0,0,0,0.305,0.3067,0.3074,0.3054,0.3064,0.3082,0.307,0.3092,0.3095,0.3111,0.312,0.3121,0.3124,0.3115,0.3115,0.3191,0.3191,0,0,0.3049,0.3053,0.3072,0.3076,0.308,0.3069,0.307,0.3093,0.31,0.312,0.3121,0.3125,0.3115,0.3115,0.319,0.3191,0,0,0,0.3055,0.3052,0.3058,0.3075,0.3082,0.307,0.3071,0.3099,0.3102,0.3122,0.3125,0.3115,0.3116,0.319,0.3191,0.323,0,0,0,0.3054,0.3056,0.3058,0.3059,0.3082,0.3091,0.3076,0.31,0.3103,0.3125,0.3115,0.3116,0.3189,0.319,0.3228,0.3273,0,0,0,0.305,0.3056,0.3062,0.306,0.3074,0.3091,0.3094,0.31,0.3106,0.3115,0.3117,0.3189,0.319,0.3226,0.3269,0.3317,0,0,0,0.3047,0.3071,0.3062,0.3093,0.3074,0.3104,0.3094,0.3114,0.3123,0.3116,0.3189,0.319,0.3225,0.3267,0.3314,0.3282,0.3293,0,0,0.3076,0.3075,0.3093,0.3086,0.3118,0.31,0.3141,0.3147,0.3146,0.3179,0.318,0.3229,0.3269,0.3316,0.3345,0.3354,0,0,0,0.3101,0.311,0.3121,0.3136,0.3151,0.3172,0.3168,0.3183,0.3213,0.316,0.324,0.3265,0.3293,0.3268,0.3275,0.3218,0.3196,0.3195,0.3195,0.3115,0.3126,0.3147,0.3161,0.3189,0.3219,0.3252,0.3272,0.325,0.3275,0.3304,0.3382,0.3354,0.3359,0.33,0.3298,0.3298,0.3298,0.3298,0.3123,0.3107,0.315,0.3172,0.3207,0.3244,0.333,0.334,0.3406,0.3363,0.3388,0.332,0.337,0.3304,0.3301,0.33,0.33,0.33,0.3299,0.3073,0.3064,0.3095,0.3134,0.3196,0.3267,0.3351,0.3419,0.3464,0.3497,0.3462,0.3461,0.3398,0.3497,0.3498,0.3498,0.3499,0.3499,0.3499,0.298,0.3015,0.3028,0.3099,0.3128,0.3226,0.3363,0.3424,0.3512,0.3532,0.3531,0.3421,0.3443,0.343,0.3506,0.3504,0.3504,0.3503,0.3503,0.287,0.2919,0.2926,0.2955,0.3039,0.3058,0.3238,0.3373,0.3479,0.3526,0.3496,0.3547,0.354,0.3532,0.3521,0.3617,0.3617,0.3617,0.3617,0.2793,0.2821,0.2808,0.2824,0.2883,0.2964,0.2955,0.3121,0.3356,0.343,0.3511,0.3433,0.3431,0.3412,0.3407,0.3392,0.3453,0.3453,0.3453,0.2722,0.2735,0.2678,0.2716,0.278,0.2805,0.2721,0.2787,0.3181,0.3441,0.3443,0.345,0.3328,0.3329,0.3289,0.3287,0.3259,0,0]},{"header":{"parameterUnit":"m.s-1","parameterCategory":2,"la1":30.2992,"la2":30.254,"lo1":-89.0895,"lo2":-89.0443,"dy":0.0025,"dx":0.0025,"nx":19,"ny":19,"refTime":"2026-03-13T03:00:00:Z","depth":"0","parameterNumber":3,"parameterNumberName":"V-component_of_CURRENTS"},"data":[0,0,0,0.0341,0.034,0.0314,0.0314,0.0242,0.0241,0,0,0,0,0,0,0,0,0,0,0,0.0347,0.0347,0.0341,0.034,0.0314,0.0314,0.0242,0.0241,0,0,0,0,0,0,0,0,0,0,0,0.0347,0.0347,0.0347,0.034,0.0314,0.0314,0.0242,0.0269,0,0,0,0,0,0,0,0,0,0,0.0298,0.0311,0.0347,0.0347,0.034,0.0314,0.0314,0.0271,0.0267,0.0246,0,0.0248,0,0.0248,0.0237,0.0236,0,0,0,0.033,0.0314,0.0311,0.0347,0.034,0.0314,0.0323,0.0269,0.0265,0.0241,0.0247,0.0245,0.0246,0.0236,0.0236,0.0242,0.0243,0,0,0.0331,0.0334,0.0314,0.0309,0.034,0.0324,0.0322,0.0267,0.0262,0.0247,0.0243,0.0245,0.0236,0.0235,0.0242,0.0243,0,0,0,0.0343,0.0335,0.0335,0.0312,0.0313,0.0324,0.0322,0.0264,0.0266,0.0242,0.0244,0.0235,0.0234,0.0241,0.0242,0.0359,0,0,0,0.0343,0.0343,0.0336,0.0336,0.0315,0.0294,0.032,0.027,0.0264,0.0245,0.0235,0.0234,0.0241,0.0242,0.0354,0.0424,0,0,0,0.0347,0.0343,0.0344,0.0336,0.0331,0.0295,0.0292,0.0268,0.0265,0.0236,0.0233,0.024,0.0242,0.035,0.0416,0.0476,0,0,0,0.0346,0.0377,0.0344,0.0381,0.0331,0.0363,0.0293,0.0296,0.028,0.0235,0.0241,0.0242,0.0349,0.0411,0.0471,0.0561,0.0591,0,0,0.0393,0.0382,0.0408,0.0379,0.0438,0.0365,0.0415,0.0355,0.0292,0.0252,0.0252,0.0356,0.0415,0.0475,0.0644,0.0672,0,0,0,0.043,0.0452,0.0463,0.0484,0.0483,0.0495,0.0431,0.0404,0.0372,0.029,0.0352,0.0386,0.042,0.0464,0.0486,0.0362,0.0249,0.0249,0.0248,0.0501,0.0512,0.057,0.0583,0.0595,0.058,0.0583,0.0532,0.0449,0.0454,0.0478,0.0602,0.065,0.0668,0.0539,0.0464,0.0464,0.0465,0.0465,0.0599,0.0642,0.0652,0.0709,0.0715,0.0746,0.0725,0.0681,0.0671,0.0581,0.0608,0.0582,0.0699,0.0552,0.0472,0.0471,0.047,0.0469,0.0469,0.0654,0.0681,0.0705,0.0787,0.0862,0.0868,0.0961,0.0903,0.0801,0.0823,0.084,0.0839,0.0712,0.0828,0.0828,0.0829,0.0829,0.083,0.083,0.0699,0.0732,0.0807,0.0885,0.0958,0.1066,0.11,0.1111,0.1076,0.0992,0.0991,0.0751,0.0712,0.07,0.0839,0.0838,0.0837,0.0836,0.0835,0.0784,0.0789,0.0908,0.0984,0.1166,0.1338,0.1351,0.1406,0.136,0.1367,0.1026,0.1068,0.104,0.1021,0.1016,0.1228,0.1228,0.1229,0.1229,0.0836,0.085,0.1011,0.1156,0.1335,0.147,0.1668,0.1678,0.1433,0.1267,0.1115,0.1029,0.1019,0.098,0.0962,0.0951,0.1143,0.1142,0.1142,0.0904,0.0943,0.107,0.1204,0.1415,0.162,0.1829,0.1907,0.1486,0.1118,0.0927,0.0931,0.0776,0.077,0.0679,0.0664,0.0635,0,0]}],[{"header":{"parameterUnit":"m.s-1","parameterCategory":2,"la1":30.2992,"la2":30.254,"lo1":-89.0895,"lo2":-89.0443,"dy":0.0025,"dx":0.0025,"nx":19,"ny":19,"refTime":"2026-03-13T03:00:00:Z","depth":"2","parameterNumber":2,"parameterNumberName":"U-component_of_CURRENTS"},"data":[0,0,0,0.2509,0.2511,0.2586,0.2587,0.2667,0.2668,0,0,0,0,0,0,0,0,0,0,0,0.248,0.248,0.2509,0.2511,0.2586,0.2587,0.2667,0.2668,0,0,0,0,0,0,0,0,0,0,0,0.248,0.248,0.2481,0.2512,0.2586,0.2587,0.2667,0.2613,0,0,0,0,0,0,0,0,0,0,0.2541,0.252,0.248,0.2481,0.2512,0.2586,0.2587,0.2611,0.2616,0.2631,0,0.2646,0,0.2663,0.2674,0.2674,0,0,0,0.2506,0.2515,0.2536,0.2481,0.2513,0.2586,0.2551,0.2614,0.262,0.2638,0.2647,0.265,0.2665,0.2674,0.2675,0.2772,0.2773,0,0,0.2502,0.2493,0.2531,0.254,0.2537,0.2549,0.2553,0.2618,0.2627,0.2647,0.2653,0.2666,0.2675,0.2675,0.2772,0.2772,0,0,0,0.2494,0.249,0.2509,0.2536,0.2554,0.2551,0.2556,0.2624,0.263,0.2654,0.2667,0.2675,0.2676,0.2771,0.2772,0.2808,0,0,0,0.2491,0.2486,0.2507,0.2503,0.2553,0.2593,0.2561,0.2626,0.2634,0.2666,0.2675,0.2677,0.2771,0.2772,0.2806,0.2847,0,0,0,0.2475,0.2484,0.2494,0.2502,0.2538,0.2592,0.2602,0.2628,0.2642,0.2674,0.2677,0.277,0.2771,0.2804,0.2843,0.2889,0,0,0,0.2461,0.2481,0.2494,0.2525,0.2537,0.2594,0.2602,0.2649,0.2678,0.2676,0.2771,0.2772,0.2804,0.2841,0.2886,0.2825,0.2833,0,0,0.2476,0.2483,0.2501,0.2515,0.2565,0.2583,0.2646,0.2686,0.2699,0.2746,0.2749,0.2807,0.2843,0.2888,0.2887,0.2893,0,0,0,0.2499,0.251,0.253,0.2563,0.2604,0.2659,0.2691,0.2721,0.2777,0.2723,0.2818,0.2841,0.2868,0.2826,0.2831,0.2777,0.2777,0.2777,0.2777,0.249,0.2517,0.2546,0.2587,0.2635,0.2712,0.2766,0.2813,0.2808,0.2844,0.2878,0.2951,0.2906,0.2909,0.2873,0.2873,0.2873,0.2873,0.2874,0.2488,0.2489,0.2548,0.2586,0.2658,0.2723,0.2843,0.2872,0.2963,0.2933,0.2957,0.2875,0.2916,0.2877,0.2876,0.2876,0.2875,0.2875,0.2875,0.2445,0.2448,0.2486,0.2548,0.2638,0.2744,0.2851,0.2946,0.3013,0.3053,0.3006,0.3004,0.2983,0.3059,0.3059,0.306,0.306,0.306,0.306,0.237,0.2408,0.2428,0.2516,0.2563,0.2686,0.2865,0.2941,0.3039,0.3067,0.3066,0.3015,0.3008,0.2995,0.3066,0.3065,0.3065,0.3064,0.3064,0.2294,0.2328,0.2345,0.2382,0.2489,0.2522,0.2726,0.2874,0.2992,0.3027,0.307,0.3068,0.3058,0.3052,0.304,0.312,0.312,0.312,0.312,0.2234,0.2256,0.2252,0.2275,0.2338,0.2434,0.2448,0.2578,0.2798,0.2865,0.2876,0.2786,0.279,0.276,0.276,0.274,0.2741,0.274,0.2739,0.2182,0.2193,0.2154,0.2187,0.2242,0.2287,0.2222,0.2198,0.2417,0.2718,0.2738,0.3108,0.3002,0.2999,0.297,0.2964,0.2939,0,0]},{"header":{"parameterUnit":"m.s-1","parameterCategory":2,"la1":30.2992,"la2":30.254,"lo1":-89.0895,"lo2":-89.0443,"dy":0.0025,"dx":0.0025,"nx":19,"ny":19,"refTime":"2026-03-13T03:00:00:Z","depth":"2","parameterNumber":3,"parameterNumberName":"V-component_of_CURRENTS"},"data":[0,0,0,0.02,0.0199,0.0181,0.018,0.0121,0.0121,0,0,0,0,0,0,0,0,0,0,0,0.0204,0.0204,0.02,0.0199,0.0181,0.018,0.0121,0.0121,0,0,0,0,0,0,0,0,0,0,0,0.0203,0.0204,0.0204,0.0199,0.0181,0.018,0.0121,0.0142,0,0,0,0,0,0,0,0,0,0,0.0164,0.0174,0.0204,0.0204,0.0199,0.0181,0.018,0.0144,0.0141,0.0122,0,0.0124,0,0.0125,0.0117,0.0116,0,0,0,0.0191,0.0176,0.0175,0.0204,0.0199,0.0181,0.0187,0.0142,0.0139,0.0119,0.0123,0.0121,0.0124,0.0116,0.0116,0.0117,0.0118,0,0,0.0192,0.0194,0.0177,0.0173,0.02,0.0187,0.0186,0.0141,0.0137,0.0123,0.012,0.0123,0.0116,0.0115,0.0117,0.0117,0,0,0,0.0201,0.0194,0.0195,0.0176,0.0177,0.0187,0.0186,0.0139,0.014,0.012,0.0122,0.0116,0.0115,0.0116,0.0117,0.0217,0,0,0,0.0201,0.02,0.0195,0.0195,0.0178,0.0162,0.0184,0.0143,0.0138,0.0123,0.0116,0.0114,0.0116,0.0117,0.0213,0.0272,0,0,0,0.0203,0.02,0.0201,0.0195,0.0192,0.0163,0.0162,0.0142,0.014,0.0116,0.0114,0.0115,0.0117,0.021,0.0266,0.0304,0,0,0,0.0202,0.0224,0.0201,0.023,0.0192,0.022,0.0162,0.0166,0.0153,0.0115,0.0116,0.0117,0.0209,0.0262,0.0301,0.0353,0.0376,0,0,0.0235,0.0228,0.0249,0.0229,0.028,0.0222,0.0265,0.0215,0.0161,0.0125,0.0125,0.0215,0.0265,0.0304,0.0416,0.0437,0,0,0,0.0265,0.0282,0.0293,0.0314,0.0316,0.0329,0.0278,0.0255,0.0226,0.0159,0.0209,0.0238,0.0259,0.0282,0.0298,0.0122,0.0122,0.0122,0.0122,0.0315,0.0329,0.0377,0.0394,0.0407,0.0399,0.0401,0.0356,0.029,0.0291,0.0315,0.0408,0.0435,0.0447,0.0299,0.03,0.03,0.0301,0.0301,0.0393,0.0431,0.0445,0.0494,0.0505,0.0534,0.0515,0.0479,0.0467,0.0398,0.0412,0.0381,0.0471,0.0309,0.0307,0.0306,0.0305,0.0305,0.0304,0.0438,0.0462,0.0485,0.0559,0.0624,0.0634,0.071,0.0664,0.0574,0.0591,0.0584,0.0583,0.0472,0.0591,0.0591,0.0592,0.0592,0.0592,0.0593,0.0477,0.0505,0.0571,0.064,0.0705,0.08,0.0828,0.0832,0.0786,0.071,0.0709,0.0506,0.0496,0.0488,0.06,0.0598,0.0598,0.0597,0.0596,0.0553,0.0555,0.066,0.0726,0.0886,0.1026,0.1034,0.1055,0.1007,0.0996,0.0762,0.0756,0.0727,0.0712,0.0708,0.0871,0.0871,0.0871,0.0871,0.0598,0.0609,0.075,0.0876,0.1029,0.1137,0.1279,0.1243,0.1092,0.0961,0.0957,0.0904,0.0892,0.0867,0.0848,0.0845,0.1043,0.1043,0.1043,0.0659,0.0692,0.0804,0.0919,0.1096,0.1262,0.1401,0.1363,0.1115,0.1047,0.0956,0.0888,0.0796,0.0783,0.0725,0.0704,0.069,0,0]}],[{"header":{"parameterUnit":"m.s-1","parameterCategory":2,"la1":30.2992,"la2":30.254,"lo1":-89.0895,"lo2":-89.0443,"dy":0.0025,"dx":0.0025,"nx":19,"ny":19,"refTime":"2026-03-13T03:00:00:Z","depth":"4","parameterNumber":2,"parameterNumberName":"U-component_of_CURRENTS"},"data":[0,0,0,0.166,0.1663,0.1837,0.1838,0.1989,0.199,0,0,0,0,0,0,0,0,0,0,0,0.1603,0.1604,0.1659,0.1664,0.1837,0.1838,0.1989,0.199,0,0,0,0,0,0,0,0,0,0,0,0.1603,0.1604,0.1606,0.1664,0.1837,0.1838,0.1989,0.1876,0,0,0,0,0,0,0,0,0,0,0.1716,0.1681,0.1604,0.1606,0.1665,0.1837,0.1838,0.1871,0.1883,0.1889,0,0.1925,0,0.1958,0.1999,0.1999,0,0,0,0.1666,0.1671,0.171,0.1606,0.1667,0.1837,0.176,0.1878,0.1891,0.1904,0.1927,0.1933,0.196,0.1999,0.2,0.2133,0.2134,0,0,0.1656,0.1641,0.1701,0.1719,0.1722,0.1754,0.1765,0.1887,0.1908,0.1928,0.1937,0.1963,0.2,0.2001,0.2133,0.2134,0,0,0,0.1627,0.1634,0.1672,0.1712,0.1748,0.1759,0.1772,0.1903,0.1914,0.1939,0.1965,0.2001,0.2002,0.2132,0.2133,0.2171,0,0,0,0.1621,0.1617,0.1668,0.1661,0.1746,0.1839,0.1785,0.1906,0.1921,0.1964,0.2001,0.2004,0.2132,0.2133,0.2169,0.22,0,0,0,0.1593,0.1614,0.1636,0.166,0.1733,0.1838,0.1858,0.191,0.1935,0.1999,0.2004,0.2131,0.2133,0.2167,0.2196,0.224,0,0,0,0.1568,0.1598,0.1636,0.1684,0.1731,0.1826,0.1857,0.1946,0.2003,0.2002,0.2132,0.2133,0.2166,0.2193,0.2238,0.1962,0,0,0,0.1581,0.16,0.1626,0.1663,0.1739,0.1802,0.1898,0.1988,0.2021,0.2085,0.209,0.2169,0.2196,0.224,0.204,0,0,0,0,0.1613,0.1634,0.1665,0.1726,0.1798,0.1893,0.1975,0.2024,0.2123,0.2062,0.2185,0.2201,0.2227,0.2059,0.2139,0.2139,0.2139,0.2139,0.2139,0.16,0.1641,0.169,0.1758,0.1833,0.1962,0.2045,0.2128,0.2146,0.2202,0.2243,0.2319,0.2142,0.2247,0.2247,0.2247,0.2248,0.2248,0.2248,0.1596,0.1612,0.17,0.1765,0.1875,0.1977,0.2131,0.2186,0.231,0.2298,0.2321,0.2123,0.2252,0.2251,0.2251,0.225,0.225,0.2249,0.2249,0.1554,0.1565,0.1631,0.1734,0.1865,0.201,0.2135,0.2264,0.2355,0.2404,0.2235,0.2359,0.2344,0.2422,0.2423,0.2423,0.2423,0.2423,0.2424,0.1471,0.1532,0.1583,0.1708,0.1788,0.194,0.2159,0.2234,0.2357,0.2267,0.2432,0.2378,0.2373,0.2356,0.2429,0.2428,0.2427,0.2427,0.2426,0.1397,0.1444,0.1497,0.1566,0.1721,0.1801,0.2035,0.2123,0.2185,0.217,0.2186,0.2196,0.2163,0.2163,0.2137,0.2148,0.2145,0.2142,0,0.1336,0.1365,0.1416,0.1475,0.1546,0.1705,0.1734,0.186,0.1977,0.191,0.2186,0.22,0.2206,0.2165,0.216,0.2125,0,0,0,0.1287,0.1311,0.1315,0.1387,0.1445,0.1553,0.1731,0.1712,0.1959,0.1941,0.206,0.2081,0.2281,0.2445,0.242,0.2413,0.2384,0,0]},{"header":{"parameterUnit":"m.s-1","parameterCategory":2,"la1":30.2992,"la2":30.254,"lo1":-89.0895,"lo2":-89.0443,"dy":0.0025,"dx":0.0025,"nx":19,"ny":19,"refTime":"2026-03-13T03:00:00:Z","depth":"4","parameterNumber":3,"parameterNumberName":"V-component_of_CURRENTS"},"data":[0,0,0,0.0162,0.0162,0.0154,0.0154,0.011,0.011,0,0,0,0,0,0,0,0,0,0,0,0.0164,0.0164,0.0162,0.0162,0.0154,0.0154,0.011,0.011,0,0,0,0,0,0,0,0,0,0,0,0.0164,0.0164,0.0164,0.0163,0.0154,0.0154,0.011,0.0123,0,0,0,0,0,0,0,0,0,0,0.0135,0.0143,0.0164,0.0164,0.0163,0.0154,0.0154,0.0124,0.0122,0.0106,0,0.0109,0,0.0111,0.0106,0.0106,0,0,0,0.0156,0.0144,0.0144,0.0164,0.0163,0.0154,0.0156,0.0123,0.0121,0.0104,0.0109,0.0107,0.011,0.0106,0.0106,0.0103,0.0103,0,0,0.0156,0.0158,0.0145,0.0143,0.0165,0.0156,0.0156,0.0122,0.012,0.0109,0.0106,0.011,0.0106,0.0106,0.0102,0.0103,0,0,0,0.0162,0.0158,0.0159,0.0144,0.0147,0.0156,0.0156,0.0122,0.0123,0.0106,0.0109,0.0106,0.0105,0.0102,0.0102,0.018,0,0,0,0.0162,0.0162,0.016,0.016,0.0148,0.0139,0.0156,0.0125,0.0122,0.0109,0.0106,0.0105,0.0102,0.0102,0.0177,0.0221,0,0,0,0.0163,0.0162,0.0163,0.016,0.016,0.014,0.0139,0.0125,0.0123,0.0106,0.0104,0.0101,0.0102,0.0174,0.0216,0.0236,0,0,0,0.0162,0.0177,0.0163,0.0186,0.016,0.0182,0.0139,0.0144,0.0135,0.0105,0.0102,0.0102,0.0174,0.0213,0.0233,0.0246,0,0,0,0.0184,0.018,0.0196,0.0184,0.0222,0.0182,0.0215,0.018,0.0138,0.0108,0.0108,0.0178,0.0216,0.0235,0.0289,0,0,0,0,0.0205,0.0219,0.0227,0.0245,0.0249,0.0262,0.0226,0.0208,0.0185,0.0137,0.0171,0.0192,0.0202,0.0201,0.0106,0.0106,0.0106,0.0106,0.0106,0.0237,0.025,0.0287,0.0303,0.0315,0.0313,0.0314,0.028,0.0232,0.0232,0.025,0.0313,0.0315,0.0237,0.0238,0.0238,0.0239,0.0239,0.0239,0.0289,0.0317,0.0335,0.0375,0.0388,0.0413,0.0397,0.0372,0.0358,0.031,0.0315,0.0277,0.0246,0.0245,0.0244,0.0243,0.0242,0.0242,0.0242,0.0317,0.0334,0.0359,0.0421,0.0476,0.0489,0.0543,0.051,0.0438,0.0449,0.0422,0.0361,0.036,0.0445,0.0446,0.0446,0.0446,0.0446,0.0447,0.0335,0.0362,0.0418,0.0479,0.0535,0.0609,0.0633,0.0626,0.0564,0.0518,0.0472,0.0382,0.0376,0.0371,0.0451,0.045,0.045,0.0449,0.0449,0.0376,0.0387,0.0472,0.053,0.0659,0.0711,0.0738,0.0708,0.0692,0.0644,0.0539,0.0533,0.0503,0.0494,0.0491,0.0611,0.0611,0.0612,0,0.0401,0.0413,0.0526,0.0628,0.0734,0.0777,0.0794,0.0778,0.0683,0.0667,0.0667,0.055,0.0544,0.051,0.0502,0.05,0,0,0,0.0435,0.0465,0.0548,0.0646,0.0765,0.0794,0.0802,0.0776,0.0703,0.0691,0.0624,0.0621,0.0557,0.0465,0.0405,0.0397,0.0385,0,0]}]]